Davenport, IA

8:52 PM CDT on March 22, 2017 (GMT -0500)
Davenport Municipal

Weather History for KDVN - February, 2013

Change the Weather History Date:

Tuesday, February 19, 2013

  Actual Average Record
Temperature  
Mean Temperature 13 °F 27 °F  
Max Temperature 20 °F 36 °F 71 °F (2017)
Min Temperature 6 °F 19 °F -11 °F (2015)
Degree Days  
Heating Degree Days 52 38  
Month to date heating degree days 733 768  
Since 1 July heating degree days 4429 4704  
Cooling Degree Days 0 0  
Month to date cooling degree days 0 0  
Year to date cooling degree days 0 0  
Moisture  
Dew Point 4 °F    
Average Humidity 69    
Maximum Humidity 76    
Minimum Humidity 62    
Precipitation  
Precipitation T in 0.05 in 0.43 in (1955)
Month to date precipitation 1.21 0.83  
Year to date precipitation 3.09 2.02  
Snow  
Snow T in - - ()
Month to date snowfall 0.9  
Since 1 July snowfall 9.4  
Snow Depth T in    
Sea Level Pressure  
Sea Level Pressure 30.01 in    
Wind  
Wind Speed 25 mph (WNW)    
Max Wind Speed 38 mph    
Max Gust Speed 45 mph    
Visibility 9 miles    
Events Snow    
T = Trace of Precipitation, MM = Missing Value Source: NWS Daily Summary

Daily Weather History Graph

Daily Weather History Graph

Search for Another Location

Airport or City:

Trip Planner

Search our weather history database for the weather conditions in past years. The results will help you decide how hot, cold, wet, or windy it might be!

Date:

Astronomy

Feb. 19, 2013 Rise Set
Actual Time 6:51 AM CST 5:41 PM CST
Civil Twilight 6:23 AM CST 6:09 PM CST
Nautical Twilight 5:51 AM CST 6:41 PM CST
Astronomical Twilight 5:19 AM CST 7:13 PM CST
Moon 12:10 PM CST (2/19) 2:26 AM CST (2/19)
Length of Visible Light 11h 45m
Length of Day
10h 49m
Waxing Gibbous, 67% of the Moon is Illuminated
Feb 19
Waxing Gibbous
Feb 25
Full
Mar 4
Last Quarter
Mar 11
New
Mar 19
First Quarter

Hourly Weather History & Observations

Time (CST) Temp. Windchill Dew Point Humidity Pressure Visibility Wind Dir Wind Speed Gust Speed Precip Events Conditions
12:52 AM 17.1 °F -2.4 °F 10.0 °F 74% 29.80 in 10.0 mi WNW 28.8 mph 38.0 mph N/A   Overcast
1:38 AM 15.8 °F -5.0 °F 8.6 °F 73% 29.80 in 10.0 mi West 32.2 mph 40.3 mph N/A   Overcast
1:52 AM 15.1 °F -5.7 °F 7.0 °F 70% 29.83 in 10.0 mi West 31.1 mph 42.6 mph N/A   Overcast
2:38 AM 14.0 °F -8.3 °F 6.8 °F 73% 29.81 in 7.0 mi West 35.7 mph 42.6 mph 0.00 in Snow Light Snow
2:52 AM 14.0 °F -7.7 °F 6.1 °F 71% 29.84 in 6.0 mi WNW 33.4 mph 42.6 mph 0.00 in Snow Light Snow
3:01 AM 14.0 °F -6.8 °F 6.8 °F 73% 29.82 in 9.0 mi WNW 29.9 mph 41.4 mph 0.00 in Snow Light Snow
3:52 AM 10.9 °F -10.3 °F 3.9 °F 73% 29.87 in 10.0 mi WNW 27.6 mph 40.3 mph 0.00 in   Mostly Cloudy
4:45 AM 10.4 °F -11.7 °F 3.2 °F 73% 29.86 in 10.0 mi WNW 29.9 mph 39.1 mph N/A   Overcast
4:52 AM 10.9 °F -10.6 °F 3.9 °F 73% 29.90 in 10.0 mi WNW 28.8 mph 36.8 mph N/A   Mostly Cloudy
5:06 AM 10.4 °F -11.0 °F 3.2 °F 73% 29.87 in 10.0 mi WNW 27.6 mph 36.8 mph N/A   Scattered Clouds
5:20 AM 10.4 °F -11.0 °F 3.2 °F 73% 29.87 in 10.0 mi WNW 27.6 mph 36.8 mph N/A   Mostly Cloudy
5:47 AM 8.6 °F -14.8 °F 1.4 °F 73% 29.88 in 10.0 mi WNW 32.2 mph 40.3 mph N/A   Scattered Clouds
5:52 AM 9.0 °F -14.0 °F 1.9 °F 73% 29.92 in 10.0 mi WNW 31.1 mph 38.0 mph N/A   Partly Cloudy
6:52 AM 8.1 °F -14.5 °F -0.0 °F 70% 29.95 in 10.0 mi WNW 28.8 mph 39.1 mph N/A   Partly Cloudy
7:50 AM 6.8 °F -15.5 °F -0.4 °F 72% 29.95 in 7.0 mi WNW 26.5 mph 35.7 mph N/A   Mostly Cloudy
7:52 AM 7.0 °F -15.6 °F -0.0 °F 73% 29.99 in 8.0 mi WNW 27.6 mph 35.7 mph N/A   Scattered Clouds
8:42 AM 6.8 °F -14.3 °F -0.4 °F 72% 29.98 in 8.0 mi WNW 23.0 mph 34.5 mph N/A   Mostly Cloudy
8:52 AM 7.0 °F -16.0 °F -0.0 °F 73% 30.03 in 10.0 mi WNW 28.8 mph 33.4 mph N/A   Mostly Cloudy
9:52 AM 9.0 °F -13.0 °F 1.9 °F 73% 30.05 in 7.0 mi WNW 27.6 mph 35.7 mph N/A   Overcast
10:52 AM 10.9 °F -9.9 °F 3.0 °F 70% 30.06 in 9.0 mi WNW 26.5 mph 36.8 mph N/A   Mostly Cloudy
12:52 PM 15.1 °F -3.7 °F 7.0 °F 70% 30.09 in 10.0 mi WNW 24.2 mph 34.5 mph N/A   Overcast
1:43 PM 15.8 °F -2.7 °F 6.8 °F 68% 30.05 in 10.0 mi WNW 24.2 mph 34.5 mph N/A   Scattered Clouds
1:52 PM 18.0 °F 0.6 °F 9.0 °F 68% 30.09 in 10.0 mi WNW 23.0 mph 39.1 mph N/A   Scattered Clouds
2:52 PM 19.0 °F 0.6 °F 10.0 °F 68% 30.09 in 10.0 mi WNW 27.6 mph 35.7 mph N/A   Partly Cloudy
3:52 PM 19.9 °F 2.2 °F 9.0 °F 62% 30.13 in 10.0 mi WNW 26.5 mph 34.5 mph N/A   Clear
4:52 PM 19.0 °F 1.6 °F 9.0 °F 65% 30.15 in 10.0 mi WNW 24.2 mph 34.5 mph N/A   Partly Cloudy
6:52 PM 16.0 °F -0.9 °F 7.0 °F 68% 30.20 in 10.0 mi WNW 19.6 mph - N/A   Clear
7:52 PM 14.0 °F -0.8 °F 6.1 °F 71% 30.23 in 10.0 mi WNW 13.8 mph - N/A   Clear
8:52 PM 12.9 °F -5.7 °F 5.0 °F 71% 30.25 in 10.0 mi NW 21.9 mph 27.6 mph N/A   Clear
9:52 PM 10.0 °F -9.5 °F 1.9 °F 70% 30.29 in 10.0 mi NNW 21.9 mph 28.8 mph N/A   Clear
10:52 PM 7.0 °F -10.4 °F -0.0 °F 73% 30.31 in 10.0 mi NW 15.0 mph - N/A   Clear
11:52 PM 6.1 °F -10.2 °F -0.9 °F 73% 30.34 in 10.0 mi NW 12.7 mph - N/A   Clear